Weather in Novyy Redant

Russia / Republic of Ingushetia     43°28′20″N   44°48′19″E
temp.,
°C
wind,
m/s
gust,
m/s
humid.,
%
clouds,
%
prec.,
mm/h
press.,
hPa
HPBL,
m
25 february, thu
thu2500:00−14se349142 0.0 1040220
03:00−14se228921 0.0 1038121
06:00−13se238590 0.0 1038155
09:00−11se237895 0.0 1037196
12:00−8se227361 0.0 1035282
15:00−4ese117348 0.0 1033278
18:00−6sw12865 0.0 103321
21:00−3sw237127 0.0 103333
26 february, fri
fri2600:00−1sw2378100 0.0 103126
03:00−1ssw2281100 0.0 103021
06:00−1sw2284100 0.0 102921
09:00+1ssw2383100 0.0 102856
12:00+3wsw3889100 0.0 1026560
15:00+4w2584100 0.0 1025269
18:00+1ssw2378100 0.0 102523
21:00+1ssw226779 0.0 102622
27 february, sat
sat2700:00+2ssw236726 0.0 102423
03:00+2ssw226735 0.0 102322
06:00+2ssw116816 0.0 102222
09:00+4s11707 0.0 102022
12:00+6se226776 0.0 1018133
15:00+7se347538 0.0 1016217
18:00+3sse227919 0.0 101622
21:00+3s127643 0.0 101622
28 february, sun
sun2800:00+3sse227726 0.0 101422
03:00+2nw338213 0.0 101430
06:00+1sw119966 0.1 101423
09:00+1nw119983 0.6 101428
12:00+2w0198100 1.4 101483
15:00+2wnw2498100 1.5 1014263
18:00+1w4698100 1.2 1017307
21:00+1ssw2496100 1.6 1020178
1 march, mon
mon100:000sw229099 0.0 102228
03:000wnw129691 0.1 102343
06:00−1wnw279498 0.3 1024343
09:00+1wnw367795 0.3 1025732
12:00+2nw347798 0.0 1025696
15:00+2wnw237199 0.0 1025794
18:00+1w1279100 0.1 102747
21:000n1288100 0.1 102954